Flight Track Log - Related Links

Times and Time Zones

All times are in EDT time to prevent confusion due to time zone crossing. See the N53451 flight status page for this flight to view local times or setup timezone preferences in your user account.

Time Position Orientation Groundspeed Altitude Reporting Facility
EDT Latitude Longitude Course Direction KTS MPH feet Rate Location/Type
12:46 27.9000 -82.6833 360° North 79 91 400  Level Tampa TRACON
12:47 27.9000 -82.6833 270° West 75 86 600 438 Climbing Tampa TRACON
12:48 27.8833 -82.7167 241° Southwest 91 105 1,100 500 Climbing Tampa TRACON
12:49 27.8833 -82.7333 270° West 96 110 1,600 526 Climbing Tampa TRACON
12:50 27.8833 -82.7667 270° West 95 109 2,100 550 Climbing Tampa TRACON
12:51 27.9167 -82.7833 336° Northwest 91 105 2,700 522 Climbing Tampa TRACON
12:52 27.9333 -82.7833 360° North 94 108 3,100 417 Climbing Tampa TRACON
12:53 27.9667 -82.8000 336° Northwest 84 97 3,500 429 Climbing Tampa TRACON
12:54 27.9833 -82.8000 360° North 97 112 4,000 286 Climbing Tampa TRACON
12:55 28.0167 -82.8167 336° Northwest 98 113 4,100 53 Climbing Tampa TRACON
12:56 28.0333 -82.8333 319° Northwest 106 122 4,100  Level Tampa TRACON
12:57 28.0500 -82.8000 60° Northeast 91 105 4,100  Level Tampa TRACON
12:58 28.0833 -82.8000 360° North 91 105 4,100  Level Tampa TRACON
12:59 28.1000 -82.8000 360° North 95 109 4,100 50 Level Tampa TRACON
13:00 28.1333 -82.8000 360° North 107 123 4,200  Climbing Tampa TRACON
13:01 28.1667 -82.7833 24° Northeast 102 117 4,100 -48 Descending Tampa TRACON
13:02 28.1833 -82.7833 360° North 102 117 4,100  Level Tampa TRACON
13:03 28.2167 -82.7833 360° North 103 119 4,100  Level Tampa TRACON
13:04 28.2500 -82.7833 360° North 97 112 4,100  Level Tampa TRACON
13:05 28.2833 -82.7667 24° Northeast 103 119 4,100 -100 Level Tampa TRACON
13:06 28.3000 -82.7667 360° North 94 108 3,900 -52 Descending Tampa TRACON
13:07 28.3167 -82.7500 41° Northeast 91 105 4,000 142 Climbing Tampa TRACON
13:08 28.3500 -82.7333 24° Northeast 91 105 4,200 48 Climbing Tampa TRACON
13:09 28.3833 -82.7333 360° North 97 112 4,100 -53 Descending Tampa TRACON
13:10 28.4000 -82.7333 360° North 102 117 4,100 50 Level Tampa TRACON
13:11 28.4333 -82.7167 24° Northeast 102 117 4,200 -50 Climbing Tampa TRACON
13:12 28.4500 -82.7167 360° North 100 115 4,000 -53 Descending Tampa TRACON
13:13 28.4833 -82.7000 24° Northeast 96 110 4,100 50 Climbing Tampa TRACON
13:14 28.5167 -82.7000 360° North 98 113 4,100  Level Tampa TRACON
13:15 28.5333 -82.6833 41° Northeast 98 113 4,100  Level Tampa TRACON
13:16 28.5500 -82.6667 41° Northeast 97 112 4,100  Level Tampa TRACON
13:17 28.5833 -82.6667 360° North 96 110 4,100 -50 Level Tampa TRACON
13:18 28.6167 -82.6500 24° Northeast 98 113 4,000  Descending Tampa TRACON
13:19 28.6333 -82.6500 360° North 101 116 4,100  Climbing Tampa TRACON
13:20 28.6500 -82.6333 41° Northeast 91 105 4,000  Descending Tampa TRACON
13:21 28.6833 -82.6333 360° North 92 106 4,100 50 Climbing Tampa TRACON
13:22 28.7000 -82.6167 41° Northeast 89 102 4,100 50 Level Tampa TRACON
13:23 28.7333 -82.6000 24° Northeast 98 113 4,200  Climbing Tampa TRACON
13:23 28.7403 -82.6061 322° Northwest 98 113 4,100 -203 Descending Jacksonville Center
13:24 28.7547 -82.6014 16° North 102 117 4,000 65 Descending Jacksonville Center
13:25 28.7839 -82.5942 12° North 98 113 4,200 -47 Climbing Jacksonville Center
13:26 28.8111 -82.5892 North 104 120 3,900 -516 Descending Jacksonville Center
13:27 28.8425 -82.5725 25° Northeast 110 127 3,100 -541 Descending Jacksonville Center
13:28 28.8464 -82.5514 78° East 118 136 2,800 -148 Descending Jacksonville Center
13:29 28.8464 -82.5489 90° East 118 136 2,800 -85 Level Jacksonville Center
13:37 28.9069 -82.5511 358° North 66 76 2,000 -34 Descending Jacksonville Center
13:38 28.9175 -82.5581 330° Northwest 78 90 2,500 587 Climbing Jacksonville Center
13:39 28.9300 -82.5722 315° West 91 105 2,900 492 Climbing Jacksonville Center
13:40 28.9031 -82.5772 189° South 93 107 3,500 545 Climbing Jacksonville Center
13:41 28.8819 -82.5772 180° South 74 85 4,000 517 Climbing Jacksonville Center
13:42 28.8611 -82.5750 175° South 78 90 4,500 465 Climbing Jacksonville Center
13:43 28.8383 -82.5772 185° South 77 89 5,000 328 Climbing Jacksonville Center
13:44 28.8131 -82.5775 181° South 81 93 5,200 49 Climbing Jacksonville Center
13:45 28.7861 -82.5775 180° South 105 121 5,100 -47 Descending Jacksonville Center
13:46 28.7569 -82.5847 192° South 101 116 5,100 -49 Level Jacksonville Center
13:47 28.7317 -82.5872 185° South 97 112 5,000  Descending Jacksonville Center
13:49 28.7000 -82.6000 199° South 91 105 5,100 41 Climbing Tampa TRACON
13:50 28.6667 -82.6000 180° South 91 105 5,100 -50 Level Tampa TRACON
13:51 28.6333 -82.6000 180° South 101 116 5,000 -318 Descending Tampa TRACON
13:52 28.6167 -82.6167 221° Southwest 102 117 4,400 -500 Descending Tampa TRACON
13:53 28.5833 -82.6333 204° Southwest 107 123 4,000 -408 Descending Tampa TRACON
13:54 28.5667 -82.6500 221° Southwest 110 127 3,700 -417 Descending Tampa TRACON
13:55 28.5333 -82.6667 204° Southwest 110 127 3,200 -321 Descending Tampa TRACON
13:56 28.5167 -82.6833 221° Southwest 99 114 3,000 -100 Descending Tampa TRACON
13:57 28.4833 -82.6833 180° South 87 100 3,000 52 Level Tampa TRACON
13:58 28.4667 -82.7000 221° Southwest 92 106 3,100 50 Climbing Tampa TRACON
13:59 28.4333 -82.7167 204° Southwest 93 107 3,100 -50 Level Tampa TRACON
14:00 28.4167 -82.7167 180° South 98 113 3,000 50 Descending Tampa TRACON
14:01 28.3833 -82.7167 180° South 104 120 3,200 50 Climbing Tampa TRACON
14:02 28.3667 -82.7167 180° South 104 120 3,100 -50 Descending Tampa TRACON
14:03 28.3333 -82.7167 180° South 94 108 3,100 -50 Level Tampa TRACON
14:04 28.3000 -82.7167 180° South 99 114 3,000 -48 Descending Tampa TRACON
14:05 28.2833 -82.7333 221° Southwest 99 114 3,000 48 Level Tampa TRACON
14:06 28.2667 -82.7500 221° Southwest 99 114 3,100 48 Climbing Tampa TRACON
14:07 28.2333 -82.7500 180° South 95 109 3,100 -48 Level Tampa TRACON
14:08 28.2000 -82.7667 204° Southwest 107 123 3,000  Descending Tampa TRACON
14:09 28.1833 -82.7833 221° Southwest 98 113 3,100  Climbing Tampa TRACON
14:10 28.1667 -82.7667 139° Southeast 84 97 3,000 -50 Descending Tampa TRACON
14:11 28.1500 -82.7500 139° Southeast 84 97 3,000 -150 Level Tampa TRACON
14:12 28.1333 -82.7333 139° Southeast 89 102 2,700 -333 Descending Tampa TRACON
14:13 28.1000 -82.7167 156° South 97 112 2,300 -526 Descending Tampa TRACON
14:14 28.0833 -82.7167 180° South 113 130 1,700 -389 Descending Tampa TRACON
14:15 28.0500 -82.7167 180° South 96 110 1,600 -100 Descending Tampa TRACON
14:16 28.0333 -82.7000 139° Southeast 89 102 1,500 45 Descending Tampa TRACON
14:17 28.0000 -82.7000 180° South 84 97 1,700 -91 Climbing Tampa TRACON
14:18 27.9833 -82.7000 180° South 81 93 1,300 -400 Descending Tampa TRACON
14:19 27.9500 -82.7000 180° South 77 89 900 -400 Descending Tampa TRACON
14:20 27.9333 -82.7000 180° South 78 90 500 -400 Descending Tampa TRACON

Login

Don't have an account? Register now (free) for customized features, flight alerts, and more!